�������l�o���
Date,Time,MP-1(��Sv/h),MP-2(��Sv/h),MP-3(��Sv/h),MP-4(��Sv/h),MP-5(��Sv/h),MP-6(��Sv/h),MP-7(��Sv/h),MP-8(��Sv/h),����,����(m/s),���J
2018/02/27,00:00,0.885,1.496,0.927,1.751,1.209,0.484,0.866,0.837,�k�k��,4.5,��
2018/02/27,00:10,0.888,1.495,0.929,1.751,1.208,0.485,0.867,0.835,�k�k��,4.3,��
2018/02/27,00:20,0.887,1.498,0.929,1.748,1.208,0.485,0.866,0.836,�k�k��,4.0,��
2018/02/27,00:30,0.885,1.497,0.928,1.747,1.208,0.487,0.865,0.835,�k�k��,3.8,��
2018/02/27,00:40,0.887,1.496,0.926,1.749,1.208,0.487,0.867,0.835,�k�k��,4.1,��
2018/02/27,00:50,0.885,1.497,0.931,1.750,1.210,0.485,0.867,0.835,�k�k��,4.0,��
2018/02/27,01:00,0.887,1.494,0.928,1.746,1.207,0.484,0.866,0.834,�k�k��,4.3,��
2018/02/27,01:10,0.884,1.497,0.928,1.744,1.208,0.484,0.866,0.835,�k�k��,4.2,��
2018/02/27,01:20,0.885,1.493,0.930,1.748,1.209,0.486,0.867,0.835,�k�k��,4.6,��
2018/02/27,01:30,0.885,1.493,0.929,1.746,1.208,0.484,0.865,0.836,�k�k��,4.6,��
2018/02/27,01:40,0.885,1.493,0.929,1.748,1.208,0.485,0.865,0.833,�k�k��,4.4,��
2018/02/27,01:50,0.885,1.496,0.928,1.746,1.208,0.485,0.865,0.835,�k�k��,4.5,��
2018/02/27,02:00,0.885,1.498,0.928,1.750,1.206,0.484,0.866,0.835,�k�k��,5.1,��
2018/02/27,02:10,0.885,1.492,0.929,1.751,1.205,0.484,0.867,0.835,�k�k��,4.9,��
2018/02/27,02:20,0.886,1.494,0.931,1.748,1.207,0.485,0.866,0.836,�k�k��,4.9,��
2018/02/27,02:30,0.886,1.491,0.928,1.749,1.206,0.485,0.865,0.834,�k�k��,4.8,��
2018/02/27,02:40,0.885,1.494,0.927,1.749,1.209,0.486,0.864,0.835,�k�k��,4.0,��
2018/02/27,02:50,0.887,1.496,0.927,1.746,1.209,0.486,0.867,0.835,�k�k��,3.3,��
2018/02/27,03:00,0.886,1.493,0.929,1.748,1.207,0.486,0.865,0.835,�k��,3.1,��
2018/02/27,03:10,0.885,1.493,0.928,1.748,1.206,0.487,0.865,0.836,�k��,3.3,��
2018/02/27,03:20,0.885,1.495,0.928,1.749,1.207,0.487,0.866,0.834,�k��,4.5,��
2018/02/27,03:30,0.883,1.495,0.929,1.748,1.206,0.486,0.864,0.833,���k��,4.2,��
2018/02/27,03:40,0.884,1.495,0.928,1.747,1.206,0.484,0.864,0.836,���k��,4.0,��
2018/02/27,03:50,0.885,1.496,0.926,1.745,1.207,0.486,0.867,0.836,���k��,3.8,��
2018/02/27,04:00,0.881,1.493,0.929,1.747,1.205,0.484,0.865,0.835,�k��,3.9,��
2018/02/27,04:10,0.884,1.494,0.929,1.750,1.206,0.486,0.867,0.834,�k��,4.4,��
2018/02/27,04:20,0.885,1.494,0.926,1.745,1.206,0.483,0.865,0.834,�k��,3.8,��
2018/02/27,04:30,0.884,1.493,0.929,1.747,1.203,0.484,0.865,0.836,�k��,4.5,��
2018/02/27,04:40,0.884,1.493,0.928,1.744,1.209,0.486,0.864,0.835,�k��,4.7,��
2018/02/27,04:50,0.885,1.494,0.927,1.745,1.207,0.485,0.866,0.836,�k��,4.2,��
2018/02/27,05:00,0.884,1.493,0.930,1.747,1.205,0.485,0.865,0.835,���k��,3.9,��
2018/02/27,05:10,0.884,1.495,0.926,1.747,1.205,0.485,0.867,0.836,���k��,3.8,��
2018/02/27,05:20,0.883,1.491,0.929,1.747,1.207,0.486,0.866,0.833,���k��,3.6,��
2018/02/27,05:30,0.883,1.494,0.928,1.745,1.208,0.486,0.865,0.834,�k��,4.3,��
2018/02/27,05:40,0.883,1.495,0.925,1.747,1.205,0.484,0.866,0.835,�k��,3.9,��
2018/02/27,05:50,0.882,1.495,0.927,1.747,1.205,0.484,0.865,0.837,�k��,4.9,��
2018/02/27,06:00,0.882,1.494,0.928,1.748,1.206,0.485,0.864,0.833,���k��,3.6,��
2018/02/27,06:10,0.881,1.494,0.928,1.747,1.204,0.484,0.865,0.836,��,2.3,��
2018/02/27,06:20,0.883,1.495,0.926,1.746,1.206,0.485,0.867,0.834,��,2.2,��
2018/02/27,06:30,0.884,1.495,0.927,1.745,1.204,0.486,0.864,0.835,���쐼,2.2,��
2018/02/27,06:40,0.884,1.492,0.927,1.745,1.204,0.485,0.866,0.834,���쐼,1.2,��
2018/02/27,06:50,0.884,1.495,0.927,1.743,1.206,0.485,0.866,0.834,���k��,1.4,��
2018/02/27,07:00,0.885,1.493,0.926,1.743,1.209,0.484,0.865,0.834,���k��,1.7,��
2018/02/27,07:10,0.884,1.493,0.927,1.745,1.207,0.486,0.865,0.835,��,1.4,��
2018/02/27,07:20,0.884,1.493,0.927,1.745,1.206,0.485,0.864,0.836,���k��,1.4,��
2018/02/27,07:30,0.885,1.495,0.924,1.746,1.209,0.485,0.864,0.834,��,1.5,��
2018/02/27,07:40,0.883,1.495,0.928,1.745,1.208,0.486,0.866,0.836,�k��,1.9,��
2018/02/27,07:50,0.887,1.495,0.930,1.745,1.206,0.485,0.866,0.834,�k��,2.2,��
2018/02/27,08:00,0.885,1.495,0.929,1.749,1.207,0.486,0.866,0.837,���k��,2.2,��
2018/02/27,08:10,0.886,1.490,0.929,1.748,1.208,0.486,0.866,0.836,���k��,1.2,��
2018/02/27,08:20,0.886,1.496,0.931,1.749,1.208,0.484,0.867,0.834,-,CALM,�L
2018/02/27,08:30,0.887,1.495,0.930,1.750,1.210,0.486,0.866,0.835,���쓌,0.9,�L
2018/02/27,08:40,0.887,1.497,0.929,1.749,1.208,0.486,0.867,0.836,���k��,1.7,�L
2018/02/27,08:50,0.886,1.496,0.931,1.749,1.209,0.487,0.868,0.836,�k��,2.5,��
2018/02/27,09:00,0.888,1.495,0.929,1.747,1.212,0.485,0.868,0.836,�k��,2.3,��
2018/02/27,09:10,0.888,1.497,0.927,1.747,1.211,0.485,0.869,0.837,�k��,2.0,��
2018/02/27,09:20,0.887,1.494,0.928,1.747,1.210,0.486,0.869,0.837,�k�k��,2.0,��
2018/02/27,09:30,0.888,1.497,0.929,1.747,1.207,0.485,0.865,0.835,��,1.5,��
2018/02/27,09:40,0.889,1.497,0.931,1.750,1.210,0.486,0.866,0.836,��,1.9,��
2018/02/27,09:50,0.888,1.496,0.929,1.749,1.210,0.485,0.865,0.836,���k��,2.0,��
2018/02/27,10:00,0.889,1.494,0.931,1.747,1.209,0.484,0.866,0.837,���k��,2.5,��
2018/02/27,10:10,0.887,1.490,0.929,1.750,1.208,0.485,0.867,0.835,���k��,3.4,��
2018/02/27,10:20,0.890,1.490,0.930,1.752,1.209,0.485,0.866,0.837,��,2.9,��
2018/02/27,10:30,0.889,1.491,0.932,1.750,1.213,0.484,0.866,0.836,���쓌,4.0,��
2018/02/27,10:40,0.887,1.493,0.930,1.751,1.209,0.486,0.866,0.836,���쓌,3.3,��
2018/02/27,10:50,0.891,1.494,0.919,1.751,1.211,0.486,0.865,0.839,��,3.4,��
2018/02/27,11:00,0.888,1.497,0.920,1.751,1.212,0.486,0.865,0.837,�쓌,3.9,��
2018/02/27,11:10,0.889,1.496,0.918,1.749,1.212,0.485,0.866,0.839,���쓌,4.8,��
2018/02/27,11:20,0.890,1.494,0.914,1.748,1.211,0.487,0.866,0.837,���쓌,3.4,��
2018/02/27,11:30,0.890,1.495,0.922,1.750,1.211,0.488,0.867,0.838,�쓌,4.5,��
2018/02/27,11:40,0.888,1.494,0.925,1.750,1.210,0.488,0.867,0.836,�쓌,5.0,��
2018/02/27,11:50,0.889,1.498,0.931,1.754,1.211,0.487,0.867,0.837,���쓌,3.6,��
2018/02/27,12:00,0.888,1.494,0.929,1.752,1.212,0.487,0.865,0.838,���쓌,3.7,��
2018/02/27,12:10,0.891,1.495,0.930,1.751,1.211,0.488,0.866,0.837,���쓌,2.9,��
2018/02/27,12:20,0.891,1.496,0.931,1.750,1.211,0.486,0.867,0.837,���쓌,4.4,��
2018/02/27,12:30,0.891,1.498,0.934,1.753,1.210,0.486,0.866,0.837,�쓌,3.1,��
2018/02/27,12:40,0.891,1.496,0.931,1.754,1.212,0.487,0.867,0.836,���쓌,3.5,��
2018/02/27,12:50,0.890,1.497,0.932,1.755,1.212,0.487,0.867,0.837,���쓌,3.4,��
2018/02/27,13:00,0.892,1.497,0.933,1.752,1.210,0.486,0.868,0.839,���쓌,3.1,��
2018/02/27,13:10,0.890,1.495,0.933,1.752,1.212,0.486,0.864,0.838,�쓌,3.0,��
2018/02/27,13:20,0.892,1.498,0.934,1.753,1.212,0.487,0.865,0.837,���쓌,3.2,��
2018/02/27,13:30,0.890,1.497,0.931,1.752,1.212,0.487,0.866,0.837,���쓌,3.3,��
2018/02/27,13:40,0.891,1.494,0.932,1.755,1.209,0.487,0.867,0.838,���쓌,3.0,��
2018/02/27,13:50,0.891,1.496,0.930,1.753,1.213,0.488,0.866,0.838,���쓌,3.4,��
2018/02/27,14:00,0.891,1.496,0.933,1.752,1.215,0.488,0.866,0.837,�쓌,3.9,��
2018/02/27,14:10,0.891,1.499,0.932,1.750,1.213,0.486,0.867,0.838,�쓌,4.0,�L
2018/02/27,14:20,0.891,1.499,0.935,1.751,1.213,0.486,0.866,0.839,�쓌,3.3,�L
2018/02/27,14:30,0.891,1.493,0.932,1.754,1.215,0.487,0.868,0.838,���쓌,2.3,�L
2018/02/27,14:40,0.891,1.484,0.934,1.752,1.216,0.486,0.867,0.839,�쓌,3.3,�L
2018/02/27,14:50,0.891,1.483,0.934,1.753,1.215,0.489,0.865,0.838,���쓌,3.2,�L
2018/02/27,15:00,0.892,1.478,0.934,1.752,1.215,0.487,0.866,0.838,�쓌,2.3,�L
2018/02/27,15:10,0.893,1.484,0.934,1.754,1.215,0.489,0.867,0.837,���쓌,2.0,�L
2018/02/27,15:20,0.892,1.483,0.932,1.750,1.215,0.488,0.868,0.838,���쓌,1.9,�L
2018/02/27,15:30,0.892,1.484,0.934,1.751,1.215,0.487,0.867,0.837,�쓌,3.1,�L
2018/02/27,15:40,0.890,1.491,0.932,1.753,1.215,0.489,0.868,0.840,��쓌,2.3,��
2018/02/27,15:50,0.891,1.489,0.934,1.751,1.214,0.487,0.866,0.836,���쓌,2.0,��
2018/02/27,16:00,0.891,1.490,0.934,1.750,1.215,0.488,0.869,0.837,��쓌,2.5,�L
2018/02/27,16:10,0.891,1.494,0.931,1.752,1.214,0.488,0.868,0.837,��쓌,2.5,�L
2018/02/27,16:20,0.890,1.500,0.933,1.753,1.212,0.488,0.869,0.836,��,2.0,��
2018/02/27,16:30,0.889,1.503,0.933,1.751,1.215,0.487,0.867,0.836,��쓌,0.9,��
2018/02/27,16:40,0.891,1.502,0.934,1.750,1.216,0.487,0.870,0.838,��쓌,1.5,�L
2018/02/27,16:50,0.890,1.502,0.934,1.752,1.213,0.488,0.868,0.837,�쓌,1.2,�L
2018/02/27,17:00,0.890,1.500,0.934,1.752,1.214,0.488,0.867,0.838,�쓌,1.7,�L
2018/02/27,17:10,0.890,1.498,0.933,1.752,1.212,0.488,0.868,0.837,�쓌,1.4,�L
2018/02/27,17:20,0.890,1.498,0.934,1.752,1.211,0.487,0.868,0.837,��,2.3,�L
2018/02/27,17:30,0.890,1.498,0.933,1.754,1.212,0.488,0.868,0.836,��,1.7,�L
2018/02/27,17:40,0.891,1.498,0.932,1.753,1.210,0.488,0.871,0.837,��쐼,2.6,�L
2018/02/27,17:50,0.890,1.500,0.934,1.751,1.211,0.487,0.869,0.834,��쐼,1.7,�L
2018/02/27,18:00,0.887,1.497,0.933,1.751,1.211,0.486,0.867,0.836,��쐼,2.5,�L
2018/02/27,18:10,0.886,1.498,0.933,1.752,1.211,0.487,0.869,0.837,�쐼,2.2,�L
2018/02/27,18:20,0.887,1.496,0.934,1.751,1.211,0.487,0.869,0.837,�쐼,2.6,�L
2018/02/27,18:30,0.885,1.494,0.933,1.752,1.211,0.486,0.869,0.837,��,2.5,�L
2018/02/27,18:40,0.887,1.499,0.933,1.753,1.211,0.487,0.867,0.837,��,2.6,�L
2018/02/27,18:50,0.886,1.499,0.932,1.753,1.211,0.487,0.868,0.838,���쐼,2.5,�L
2018/02/27,19:00,0.891,1.495,0.935,1.751,1.211,0.487,0.869,0.836,��,2.3,�L
2018/02/27,19:10,0.887,1.496,0.933,1.752,1.211,0.487,0.868,0.837,���쐼,2.3,�L
2018/02/27,19:20,0.889,1.496,0.931,1.753,1.210,0.487,0.868,0.838,�쐼,2.0,�L
2018/02/27,19:30,0.889,1.496,0.931,1.753,1.210,0.486,0.869,0.835,���쐼,2.0,��
2018/02/27,19:40,0.888,1.495,0.931,1.750,1.209,0.487,0.870,0.836,���쐼,1.7,��
2018/02/27,19:50,0.891,1.494,0.932,1.748,1.210,0.487,0.868,0.835,�쐼,2.3,��
2018/02/27,20:00,0.887,1.493,0.933,1.750,1.211,0.487,0.868,0.837,�쐼,2.6,�L
2018/02/27,20:10,0.888,1.496,0.931,1.749,1.208,0.487,0.869,0.837,�쐼,2.2,��
2018/02/27,20:20,0.889,1.493,0.933,1.751,1.210,0.487,0.869,0.835,���쐼,2.3,��
2018/02/27,20:30,0.888,1.496,0.931,1.747,1.209,0.486,0.869,0.835,�쐼,2.3,��
2018/02/27,20:40,0.888,1.494,0.931,1.750,1.207,0.485,0.866,0.835,��쐼,2.3,��
2018/02/27,20:50,0.888,1.494,0.931,1.748,1.212,0.486,0.868,0.837,��쐼,2.5,��
2018/02/27,21:00,0.890,1.494,0.931,1.749,1.209,0.487,0.867,0.834,�쐼,2.3,��
2018/02/27,21:10,0.886,1.493,0.929,1.749,1.206,0.487,0.867,0.835,���쐼,1.7,��
2018/02/27,21:20,0.885,1.492,0.932,1.748,1.209,0.486,0.868,0.837,���쐼,1.5,��
2018/02/27,21:30,0.887,1.493,0.930,1.749,1.207,0.486,0.867,0.836,�쐼,1.9,��
2018/02/27,21:40,0.886,1.491,0.932,1.750,1.210,0.486,0.868,0.836,��쐼,1.9,��
2018/02/27,21:50,0.886,1.491,0.931,1.747,1.208,0.486,0.866,0.837,��쐼,2.0,��
2018/02/27,22:00,0.888,1.493,0.930,1.747,1.211,0.486,0.866,0.837,��쐼,2.6,��
2018/02/27,22:10,0.889,1.495,0.931,1.749,1.208,0.487,0.866,0.837,��쐼,3.8,��
2018/02/27,22:20,0.887,1.493,0.928,1.748,1.209,0.486,0.867,0.838,��,3.8,��
2018/02/27,22:30,0.888,1.491,0.930,1.747,1.208,0.486,0.869,0.838,��,3.5,��
2018/02/27,22:40,0.885,1.492,0.931,1.750,1.210,0.486,0.866,0.837,��,4.1,��
2018/02/27,22:50,0.888,1.494,0.930,1.750,1.208,0.486,0.868,0.837,��,4.8,��
2018/02/27,23:00,0.886,1.489,0.930,1.749,1.209,0.486,0.867,0.835,��,4.9,��
2018/02/27,23:10,0.888,1.490,0.930,1.748,1.208,0.488,0.867,0.837,��,5.8,��
2018/02/27,23:20,0.885,1.492,0.930,1.751,1.210,0.487,0.867,0.835,��,5.9,��
2018/02/27,23:30,0.887,1.494,0.929,1.748,1.206,0.488,0.866,0.837,��,5.3,��
2018/02/27,23:40,0.886,1.492,0.928,1.746,1.206,0.487,0.868,0.837,��,6.1,��
2018/02/27,23:50,0.888,1.490,0.932,1.750,1.207,0.487,0.867,0.836,��쐼,6.7,��
